GW1183 Weather Reports


time (UTC)temp
F
wind
direction
speed
knots
gust
knots
rain 1hr
in
rain 24hr
in
rain mn
in
humidity
%
barometer
mb
20260510115809 39 256 1.7 2.6 0.00 0.00 0.00 77 1014.6
20260510115307 38 206 0.0 0.9 0.00 0.00 0.00 78 1014.4
20260510114802 38 195 0.0 0.9 0.00 0.00 0.00 78 1014.4
20260510114259 38 223 1.7 1.7 0.00 0.00 0.00 78 1014.5
20260510113754 37 279 0.9 0.9 0.00 0.00 0.00 78 1014.3
20260510113252 37 273 1.7 1.7 0.00 0.00 0.00 78 1014.3
20260510112747 37 203 0.0 0.9 0.00 0.00 0.00 80 1014.3
20260510112245 37 245 1.7 1.7 0.00 0.00 0.00 80 1014.2
20260510111740 36 259 1.7 1.7 0.00 0.00 0.00 80 1014.2
20260510111237 36 197 0.0 0.9 0.00 0.00 0.00 80 1014.1
20260510110737 36 250 0.9 1.7 0.00 0.00 0.00 81 1014.0
20260510110235 36 217 0.0 0.0 0.00 0.00 0.00 81 1014.0
20260510105734 35 190 0.0 0.0 0.00 0.00 0.00 82 1013.7
20260510105230 35 227 0.9 0.9 0.00 0.00 0.00 82 1013.7
20260510104726 35 204 0.0 0.0 0.00 0.00 0.00 83 1013.7
20260510104224 34 185 0.0 0.0 0.00 0.00 0.00 83 1013.5
20260510103720 34 193 0.0 0.0 0.00 0.00 0.00 84 1013.5
20260510103218 34 170 0.0 0.0 0.00 0.00 0.00 84 1013.3
20260510102717 34 176 0.0 0.0 0.00 0.00 0.00 84 1013.3
20260510102213 34 184 0.0 0.0 0.00 0.00 0.00 83 1013.2
20260510101711 34 184 0.0 0.0 0.00 0.00 0.00 83 1013.3
20260510101209 34 223 0.0 0.9 0.00 0.00 0.00 83 1013.0
20260510100704 34 256 0.9 0.9 0.00 0.00 0.00 82 1012.9
20260510100203 35 183 0.0 0.0 0.00 0.00 0.00 82 1012.6
20260510095658 34 296 0.9 0.9 0.00 0.00 0.00 83 1012.5
20260510095153 35 161 0.0 0.0 0.00 0.00 0.00 83 1012.6
20260510094652 35 122 0.9 0.9 0.00 0.00 0.00 82 1012.4
20260510094148 35 32 0.9 0.9 0.00 0.00 0.00 82 1012.0
20260510093644 35 162 0.9 1.7 0.00 0.00 0.00 82 1011.9
20260510093142 35 157 0.9 0.9 0.00 0.00 0.00 83 1012.1
20260510092638 34 114 0.0 0.9 0.00 0.00 0.00 83 1011.8
20260510092133 34 173 0.0 0.0 0.00 0.00 0.00 83 1011.7
20260510091629 34 25 0.9 0.9 0.00 0.00 0.00 84 1011.6
20260510091125 34 149 0.0 0.0 0.00 0.00 0.00 83 1011.5
20260510090617 34 115 0.9 0.9 0.00 0.00 0.00 84 1011.5
20260510090113 34 169 0.0 0.0 0.00 0.00 0.00 83 1011.6
20260510085608 34 148 0.0 0.0 0.00 0.00 0.00 83 1011.4
20260510085104 35 149 0.0 0.0 0.00 0.00 0.00 83 1011.4
20260510084601 35 141 0.0 0.9 0.00 0.00 0.00 83 1011.3
20260510084057 34 128 0.9 0.9 0.00 0.00 0.00 83 1011.2
20260510083553 34 165 0.0 0.0 0.00 0.00 0.00 85 1011.3
20260510083050 34 167 0.0 0.0 0.00 0.00 0.00 84 1011.2
20260510082547 34 183 0.0 0.0 0.00 0.00 0.00 84 1011.2
20260510082042 34 167 0.0 0.0 0.00 0.00 0.00 84 1010.9
20260510081538 35 178 0.0 0.0 0.00 0.00 0.00 83 1010.9
20260510081033 35 183 0.0 0.0 0.00 0.00 0.00 82 1010.9
20260510080532 36 183 0.0 0.0 0.00 0.00 0.00 81 1010.7
20260510080030 36 172 0.0 0.0 0.00 0.00 0.00 80 1010.8
20260510075527 36 156 0.9 0.9 0.00 0.00 0.00 79 1011.0
20260510075024 36 135 0.9 0.9 0.00 0.00 0.00 80 1010.7
20260510074522 35 136 0.0 0.0 0.00 0.00 0.00 81 1010.7
20260510074017 35 173 0.0 0.0 0.00 0.00 0.00 83 1010.8
20260510073513 35 176 0.0 0.0 0.00 0.00 0.00 83 1010.7
20260510073010 35 177 0.0 0.0 0.00 0.00 0.00 82 1010.7
20260510072507 35 160 0.0 0.0 0.00 0.00 0.00 84 1010.4
20260510072002 35 169 0.0 0.0 0.00 0.00 0.00 85 1010.5
20260510071458 35 174 0.0 0.0 0.00 0.00 0.00 85 1010.6
20260510070957 35 178 0.0 0.0 0.00 0.00 0.00 85 1010.5
20260510070454 35 183 0.0 0.0 0.00 0.00 0.00 84 1010.5
20260510065949 35 185 0.0 0.0 0.00 0.00 0.00 82 1010.4
20260510065447 35 178 0.0 0.0 0.00 0.00 0.00 81 1010.3
20260510064942 36 186 0.0 0.0 0.00 0.00 0.00 80 1010.4
20260510064440 36 182 0.0 0.0 0.00 0.00 0.00 79 1010.5
20260510063937 36 179 0.0 0.0 0.00 0.00 0.00 78 1010.5
20260510063432 37 185 0.0 0.0 0.00 0.00 0.00 78 1010.5
20260510062931 38 185 0.0 0.0 0.00 0.00 0.00 78 1010.4
20260510062431 38 181 0.0 0.0 0.00 0.00 0.00 75 1010.4
20260510061926 39 171 0.0 0.0 0.00 0.00 0.00 74 1010.2
20260510061423 39 187 0.0 0.0 0.00 0.00 0.00 72 1010.3
20260510060919 40 151 0.9 0.9 0.00 0.00 0.00 71 1010.1
20260510060417 40 46 0.9 1.7 0.00 0.00 0.00 71 1010.3
20260510055913 40 34 0.9 0.9 0.00 0.00 0.00 70 1010.0
20260510055408 40 157 0.0 0.9 0.00 0.00 0.00 71 1010.2
20260510054906 40 333 1.7 1.7 0.00 0.00 0.00 71 1009.9
20260510054402 40 8 0.9 1.7 0.00 0.00 0.00 73 1010.3
20260510053857 41 135 0.0 0.9 0.00 0.00 0.00 73 1010.0
20260510053353 41 106 0.9 0.9 0.00 0.00 0.00 73 1010.1
20260510052849 41 123 0.0 0.9 0.00 0.00 0.00 72 1009.9
20260510052345 41 126 0.0 0.9 0.00 0.00 0.00 72 1009.9
20260510051841 42 98 0.9 0.9 0.00 0.00 0.00 71 1009.7
20260510051338 42 51 1.7 1.7 0.00 0.00 0.00 70 1009.8
20260510050835 42 10 0.9 1.7 0.00 0.00 0.00 69 1009.7
20260510050332 42 26 1.7 1.7 0.00 0.00 0.00 68 1009.6
20260510045829 43 10 3.5 4.3 0.00 0.00 0.00 68 1009.5
20260510045326 43 15 2.6 2.6 0.00 0.00 0.00 67 1009.6
20260510044823 43 69 1.7 1.7 0.00 0.00 0.00 67 1009.5
20260510044320 44 9 3.5 4.3 0.00 0.00 0.00 65 1009.5
20260510043816 44 351 1.7 1.7 0.00 0.00 0.00 65 1009.4
20260510043312 44 5 2.6 4.3 0.00 0.00 0.00 64 1009.3
20260510042810 44 358 0.9 0.9 0.00 0.00 0.00 64 1009.3
20260510042307 45 16 1.7 1.7 0.00 0.00 0.00 63 1009.1
20260510041802 45 7 1.7 2.6 0.00 0.00 0.00 62 1008.9
20260510041300 45 356 2.6 2.6 0.00 0.00 0.00 60 1008.9
20260510040757 45 18 1.7 1.7 0.00 0.00 0.00 60 1008.9
20260510040253 46 34 2.6 2.6 0.00 0.00 0.00 59 1009.0
20260510035749 46 128 0.9 0.9 0.00 0.12 0.12 60 1009.1
20260510035244 46 110 0.0 0.9 0.00 0.12 0.12 62 1009.0
20260510034735 46 190 0.0 0.0 0.00 0.12 0.12 63 1008.8
20260510034233 46 250 0.0 0.9 0.00 0.12 0.12 63 1008.4
20260510033729 46 357 0.9 0.9 0.00 0.12 0.12 61 1008.5
20260510033227 46 13 3.5 4.3 0.00 0.12 0.12 60 1008.4
20260510032723 46 354 0.9 1.7 0.00 0.12 0.12 61 1008.4
20260510032219 46 31 0.9 1.7 0.00 0.12 0.12 61 1008.4
20260510031714 46 24 1.7 1.7 0.00 0.12 0.12 63 1008.2
20260510031211 46 345 0.9 1.7 0.00 0.12 0.12 66 1008.1
20260510030710 46 162 0.9 0.9 0.00 0.12 0.12 66 1007.9
20260510030208 46 3 0.9 0.9 0.00 0.12 0.12 67 1007.7
20260510025705 47 87 1.7 1.7 0.00 0.12 0.12 65 1007.8
20260510025202 47 58 0.9 0.9 0.00 0.12 0.12 65 1008.0
20260510024659 47 5 0.9 0.9 0.00 0.12 0.12 65 1007.5
20260510024155 47 0 1.7 1.7 0.00 0.12 0.12 66 1007.5
20260510023651 47 104 0.9 1.7 0.00 0.12 0.12 66 1007.7
20260510023148 47 190 0.9 1.7 0.00 0.12 0.12 66 1007.7
20260510022643 46 8 0.9 1.7 0.00 0.12 0.12 68 1007.5
20260510022139 46 163 0.0 0.9 0.00 0.12 0.12 70 1007.2
20260510021634 46 183 0.0 0.0 0.00 0.12 0.12 73 1007.3
20260510021132 46 165 0.0 0.0 0.00 0.12 0.12 71 1007.2
20260510020626 46 163 0.0 0.0 0.00 0.12 0.12 71 1007.0
20260510020121 47 192 0.0 0.0 0.00 0.12 0.12 71 1007.3
20260510015618 47 219 0.0 0.9 0.00 0.12 0.12 69 1007.0
20260510015114 47 257 0.9 0.9 0.00 0.12 0.12 68 1006.9
20260510014610 48 133 0.9 0.9 0.00 0.12 0.12 67 1007.0
20260510014108 48 143 0.9 0.9 0.00 0.12 0.12 65 1006.7
20260510013602 49 344 0.9 0.9 0.00 0.12 0.12 62 1006.7
20260510013058 49 17 0.9 0.9 0.00 0.12 0.12 62 1006.7
20260510012557 49 344 2.6 2.6 0.00 0.12 0.12 60 1006.5
20260510012054 49 347 2.6 2.6 0.00 0.12 0.12 62 1006.6
20260510011553 50 347 3.5 4.3 0.00 0.12 0.12 65 1006.3
20260510011050 50 36 2.6 2.6 0.00 0.12 0.12 66 1006.1
20260510010546 51 347 3.5 4.3 0.00 0.12 0.12 67 1006.1
20260510010044 51 344 4.3 6.1 0.00 0.12 0.12 68 1005.7
20260510005539 52 3 2.6 2.6 0.00 0.12 0.12 67 1005.4
20260510005037 53 356 3.5 4.3 0.00 0.12 0.12 68 1005.3
20260510004534 54 39 1.7 1.7 0.00 0.12 0.12 66 1005.3
20260510004032 54 8 2.6 2.6 0.00 0.12 0.12 64 1005.1
20260510003529 54 8 2.6 2.6 0.00 0.12 0.12 64 1004.9
20260510003024 54 286 1.7 4.3 0.00 0.12 0.12 67 1004.6
20260510002520 55 219 0.0 0.9 0.00 0.12 0.12 66 1004.5
20260510002017 55 212 0.9 0.9 0.00 0.12 0.12 65 1004.5
20260510001514 55 204 0.0 0.0 0.00 0.12 0.12 65 1004.5
20260510001012 55 183 0.0 0.9 0.00 0.12 0.12 65 1004.2
20260510000507 55 204 0.0 0.0 0.00 0.12 0.12 64 1004.1
20260510000004 55 263 1.7 1.7 0.00 0.12 0.12 66 1004.1
20260509235501 55 279 1.7 1.7 0.00 0.12 0.12 67 1004.0
20260509234957 56 195 0.0 0.0 0.00 0.12 0.12 68 1003.8
20260509234454 56 212 0.0 0.0 0.00 0.12 0.12 68 1004.1
20260509233952 56 189 0.0 0.0 0.00 0.12 0.12 67 1004.0
20260509233449 56 193 0.9 0.9 0.00 0.12 0.12 66 1003.7
20260509232945 56 182 0.0 0.0 0.00 0.12 0.12 66 1003.7
20260509232443 56 293 0.9 1.7 0.00 0.12 0.12 65 1003.5
20260509231938 56 186 0.9 0.9 0.00 0.12 0.12 65 1003.6
20260509231435 56 157 0.9 0.9 0.00 0.12 0.12 65 1003.5
20260509230934 56 193 0.0 0.9 0.00 0.12 0.12 67 1003.5
20260509230430 55 210 0.0 0.0 0.00 0.12 0.12 73 1003.4
20260509225926 56 165 0.9 0.9 0.00 0.12 0.12 80 1003.4
20260509225422 56 225 1.7 1.7 0.00 0.12 0.12 78 1003.2
20260509224919 56 278 2.6 2.6 0.00 0.12 0.12 78 1003.1
20260509224414 56 261 3.5 4.3 0.00 0.12 0.12 77 1003.3
20260509223912 56 279 4.3 6.1 0.00 0.12 0.12 76 1003.1
20260509223408 57 217 3.5 4.3 0.00 0.12 0.12 76 1002.9
20260509222905 56 257 5.2 7.0 0.00 0.12 0.12 76 1002.9
20260509222401 56 237 7.0 7.8 0.00 0.12 0.12 75 1002.6
20260509221856 57 218 3.5 5.2 0.00 0.12 0.12 74 1002.6
20260509221354 57 208 4.3 5.2 0.00 0.12 0.12 74 1002.5
20260509220849 57 256 2.6 5.2 0.00 0.12 0.12 75 1002.4
20260509220345 57 236 2.6 4.3 0.00 0.12 0.12 73 1002.5
20260509215841 57 251 4.3 6.1 0.00 0.12 0.12 73 1002.4
20260509215337 57 239 2.6 2.6 0.00 0.12 0.12 75 1002.2
20260509214835 57 224 5.2 6.1 0.00 0.12 0.12 73 1002.5
20260509214332 57 172 3.5 6.1 0.00 0.12 0.12 74 1002.5
20260509213829 56 229 1.7 4.3 0.00 0.12 0.12 76 1002.3
20260509213324 57 229 7.8 11.3 0.00 0.12 0.12 75 1002.4
20260509212822 57 236 4.3 4.3 0.00 0.12 0.12 76 1002.3
20260509212320 57 231 5.2 7.0 0.00 0.12 0.12 76 1002.4
20260509211815 57 229 9.6 9.6 0.00 0.12 0.12 76 1002.4
20260509211311 56 250 6.1 7.0 0.00 0.12 0.12 78 1002.4
20260509210808 56 228 4.3 7.0 0.00 0.12 0.12 81 1002.2
20260509210306 55 255 6.1 7.0 0.00 0.12 0.12 83 1002.4
20260509205805 54 206 5.2 7.8 0.00 0.12 0.12 85 1002.4
20260509205300 54 226 7.8 8.7 0.00 0.12 0.12 85 1002.5
20260509204756 53 256 7.8 9.6 0.00 0.12 0.12 86 1002.3
20260509204252 53 232 8.7 12.2 0.00 0.12 0.12 87 1002.6
20260509203749 53 238 5.2 6.1 0.24 0.12 0.12 87 1002.6
20260509203247 52 204 7.8 12.2 0.54 0.12 0.12 87 1002.7
20260509202742 53 286 7.0 8.7 0.47 0.09 0.09 87 1003.4
20260509202238 54 280 5.2 6.1 0.19 0.03 0.03 85 1003.2
20260509201733 55 182 6.1 7.0 0.07 0.01 0.01 82 1002.7
20260509201230 56 221 7.0 9.6 0.00 0.00 0.00 79 1002.4
20260509200726 56 221 9.6 13.9 0.00 0.00 0.00 78 1002.1
20260509200221 56 211 13.0 14.8 0.00 0.00 0.00 77 1001.6
20260509195717 56 216 13.0 14.8 0.00 0.00 0.00 78 1001.8
20260509195213 56 198 10.4 11.3 0.00 0.00 0.00 78 1001.8
20260509194707 56 200 9.6 13.9 0.00 0.00 0.00 78 1001.7
20260509194204 56 186 11.3 13.9 0.00 0.00 0.00 76 1001.4
20260509193700 56 200 11.3 13.9 0.00 0.00 0.00 76 1001.4
20260509193155 57 200 10.4 13.0 0.00 0.00 0.00 74 1001.6
20260509192652 57 212 14.8 19.1 0.00 0.00 0.00 73 1001.7
20260509192147 57 199 13.0 18.2 0.00 0.00 0.00 71 1001.7
20260509191647 58 187 7.8 12.2 0.00 0.00 0.00 71 1001.7
20260509191144 58 191 11.3 18.2 0.00 0.00 0.00 70 1002.3
20260509190641 58 180 7.0 9.6 0.00 0.00 0.00 69 1002.3
20260509190138 58 202 10.4 14.8 0.00 0.00 0.00 70 1002.5
20260509185636 57 168 9.6 11.3 0.00 0.00 0.00 75 1002.4
20260509185131 57 204 8.7 9.6 0.00 0.00 0.00 75 1002.9
20260509184630 56 184 10.4 13.9 0.00 0.00 0.00 69 1002.5
20260509184126 58 220 7.8 12.2 0.00 0.00 0.00 69 1002.7
20260509183622 59 197 7.8 12.2 0.00 0.00 0.00 66 1002.6
20260509183117 59 197 12.2 14.8 0.00 0.00 0.00 62 1002.4
20260509182614 60 202 7.8 9.6 0.00 0.00 0.00 61 1002.5
20260509182111 59 207 6.1 7.8 0.00 0.00 0.00 66 1002.5
20260509181609 59 204 10.4 13.0 0.00 0.00 0.00 65 1002.7
20260509181106 59 206 8.7 9.6 0.00 0.00 0.00 68 1003.0
20260509180602 58 206 5.2 6.1 0.00 0.00 0.00 67 1003.0
20260509180100 58 196 11.3 14.8 0.00 0.00 0.00 69 1003.0
20260509175555 59 215 4.3 8.7 0.00 0.00 0.00 66 1002.9
20260509175052 59 214 9.6 13.9 0.00 0.00 0.00 63 1003.6
20260509174548 59 239 6.1 8.7 0.00 0.00 0.00 62 1003.4
20260509174043 59 182 6.1 9.6 0.00 0.00 0.00 64 1003.3
20260509173538 58 184 7.0 8.7 0.00 0.00 0.00 68 1003.5
20260509173034 59 172 4.3 7.0 0.00 0.00 0.00 67 1003.1
20260509172532 60 244 6.1 7.8 0.00 0.00 0.00 62 1002.9
20260509172027 60 215 7.0 8.7 0.00 0.00 0.00 62 1003.1
20260509171524 60 196 8.7 9.6 0.00 0.00 0.00 67 1003.1
20260509171020 60 220 10.4 12.2 0.00 0.00 0.00 64 1003.4
20260509170516 59 215 10.4 12.2 0.00 0.00 0.00 64 1003.3
20260509170012 59 199 4.3 7.8 0.00 0.00 0.00 67 1003.2
20260509165510 59 198 7.8 9.6 0.00 0.00 0.00 67 1003.3
20260509165006 59 198 10.4 13.9 0.00 0.00 0.00 66 1003.2
20260509164503 59 192 6.1 8.7 0.00 0.00 0.00 67 1003.3
20260509163958 58 166 6.1 8.7 0.00 0.00 0.00 70 1003.4
20260509163456 58 215 10.4 12.2 0.00 0.00 0.00 69 1003.5
20260509162955 58 171 9.6 13.9 0.00 0.00 0.00 66 1003.7
20260509162454 58 219 9.6 11.3 0.00 0.00 0.00 69 1003.9
20260509161949 58 204 12.2 13.9 0.00 0.00 0.00 69 1004.0
20260509161446 57 228 13.0 15.6 0.00 0.00 0.00 70 1004.1
20260509160941 57 209 8.7 11.3 0.00 0.00 0.00 73 1004.5
20260509160438 57 203 7.0 8.7 0.00 0.00 0.00 73 1004.7
20260509155933 57 206 11.3 15.6 0.00 0.00 0.00 72 1004.7
20260509155430 58 215 7.8 8.7 0.00 0.00 0.00 72 1005.0
20260509154926 58 204 5.2 7.8 0.00 0.00 0.00 73 1005.2
20260509154422 57 219 7.0 8.7 0.00 0.00 0.00 73 1005.1
20260509153920 57 217 7.0 7.8 0.00 0.00 0.00 73 1005.3
20260509153416 57 200 7.0 7.8 0.00 0.00 0.00 73 1005.0
20260509152914 56 205 5.2 7.0 0.00 0.00 0.00 73 1005.3
20260509152409 56 217 9.6 11.3 0.00 0.00 0.00 73 1005.1
20260509151907 57 157 6.1 7.8 0.00 0.00 0.00 75 1005.0
20260509151402 56 225 8.7 13.9 0.00 0.00 0.00 75 1005.0
20260509150901 55 220 7.0 8.7 0.00 0.00 0.00 76 1004.9
20260509150358 55 212 5.2 6.1 0.00 0.00 0.00 77 1005.1
20260509145856 55 201 7.0 7.8 0.00 0.00 0.00 76 1005.0
20260509145350 56 225 5.2 8.7 0.00 0.00 0.00 77 1004.7
20260509144847 56 231 5.2 7.0 0.00 0.00 0.00 77 1004.8
20260509144344 55 243 8.7 12.2 0.00 0.00 0.00 78 1004.8
20260509143841 55 219 6.1 7.8 0.00 0.00 0.00 78 1004.9
20260509143338 55 228 5.2 7.0 0.00 0.00 0.00 77 1005.2
20260509142834 54 194 5.2 7.8 0.00 0.00 0.00 79 1005.1
20260509142331 54 187 7.8 8.7 0.00 0.00 0.00 79 1005.0
20260509141826 55 192 7.8 11.3 0.00 0.00 0.00 77 1005.0
20260509141328 54 204 7.8 12.2 0.00 0.00 0.00 79 1005.1
20260509140820 55 186 5.2 5.2 0.00 0.00 0.00 77 1005.3
20260509140317 55 195 7.8 13.0 0.00 0.00 0.00 77 1005.2
20260509135815 54 178 6.1 7.8 0.00 0.00 0.00 77 1005.1
20260509135312 54 207 4.3 6.1 0.00 0.00 0.00 78 1005.4
20260509134809 54 207 6.1 8.7 0.00 0.00 0.00 77 1005.4
20260509134307 53 202 9.6 12.2 0.00 0.00 0.00 80 1005.3
20260509133804 52 182 7.0 9.6 0.00 0.00 0.00 82 1005.4
20260509133300 52 208 7.0 7.8 0.00 0.00 0.00 82 1005.3
20260509132759 52 209 7.8 9.6 0.00 0.00 0.00 81 1005.3
20260509132257 52 184 6.1 8.7 0.00 0.00 0.00 82 1005.3
20260509131753 51 188 5.2 7.0 0.00 0.00 0.00 85 1005.3
20260509131250 51 199 4.3 7.0 0.00 0.00 0.00 84 1005.3
20260509130746 51 178 8.7 12.2 0.00 0.00 0.00 84 1005.6
20260509130242 50 206 7.8 9.6 0.00 0.00 0.00 84 1005.7
20260509125739 50 197 6.1 8.7 0.00 0.00 0.00 85 1006.0
20260509125236 50 232 10.4 13.0 0.00 0.00 0.00 85 1005.9
20260509124732 50 187 10.4 12.2 0.00 0.00 0.00 85 1006.0
20260509124229 50 216 5.2 6.1 0.00 0.00 0.00 86 1005.8
20260509123727 50 212 7.0 8.7 0.00 0.00 0.00 86 1005.9
20260509123224 49 221 7.8 8.7 0.00 0.00 0.00 86 1005.9
20260509122720 50 215 6.1 7.8 0.00 0.00 0.00 87 1005.9
20260509122217 49 232 6.1 7.8 0.00 0.00 0.00 87 1006.2
20260509121713 49 171 9.6 13.0 0.00 0.00 0.00 87 1006.2
20260509121211 49 199 6.1 7.8 0.00 0.00 0.00 88 1006.2
20260509120709 49 200 5.2 7.0 0.00 0.00 0.00 88 1006.1